GW3011 Weather Reports


time (UTC)temp
C
wind
direction
speed
KPH
gust
KPH
rain 1hr
cm
rain 24hr
cm
rain mn
cm
humidity
%
barometer
mb
20260508013844 15 304 3.2 3.2 0.00 0.00 0.00 37 1008.1
20260508013340 15 307 0.0 0.0 0.00 0.00 0.00 37 1008.4
20260508012838 15 298 0.0 0.0 0.00 0.00 0.00 37 1008.2
20260508012335 15 308 3.2 4.8 0.00 0.00 0.00 37 1008.2
20260508011833 15 301 1.6 3.2 0.00 0.00 0.00 37 1008.2
20260508011330 16 290 3.2 3.2 0.00 0.00 0.00 36 1008.2
20260508010827 15 297 1.6 3.2 0.00 0.00 0.00 36 1008.3
20260508010325 16 304 0.0 0.0 0.00 0.00 0.00 37 1007.9
20260508005822 16 300 0.0 0.0 0.00 0.00 0.00 37 1008.1
20260508005318 16 307 0.0 0.0 0.00 0.00 0.00 37 1008.0
20260508004815 16 296 1.6 1.6 0.00 0.00 0.00 36 1007.9
20260508004311 16 301 1.6 1.6 0.00 0.00 0.00 37 1007.6
20260508003807 16 296 3.2 3.2 0.00 0.00 0.00 36 1007.9
20260508003305 16 302 1.6 1.6 0.00 0.00 0.00 36 1007.7
20260508002801 16 297 1.6 1.6 0.00 0.00 0.00 35 1007.7
20260508002258 16 305 1.6 1.6 0.00 0.00 0.00 36 1007.6
20260508001754 16 288 3.2 4.8 0.00 0.00 0.00 36 1007.6
20260508001250 16 331 1.6 3.2 0.00 0.00 0.00 36 1007.7
20260508000746 16 297 1.6 3.2 0.00 0.00 0.00 35 1007.3
20260508000244 16 294 4.8 4.8 0.00 0.00 0.00 35 1007.5
20260507235740 16 301 0.0 0.0 0.00 0.00 0.00 36 1007.5
20260507235238 16 304 0.0 0.0 0.00 0.00 0.00 36 1007.2
20260507234734 16 301 1.6 1.6 0.00 0.00 0.00 35 1007.5
20260507234231 16 304 3.2 3.2 0.00 0.00 0.00 35 1007.3
20260507233727 16 300 0.0 0.0 0.00 0.00 0.00 35 1007.4
20260507233225 16 286 3.2 4.8 0.00 0.00 0.00 35 1007.1
20260507232722 17 306 1.6 1.6 0.00 0.00 0.00 34 1006.9
20260507232219 17 298 4.8 4.8 0.00 0.00 0.00 34 1007.1
20260507231716 17 292 1.6 3.2 0.00 0.00 0.00 34 1006.8
20260507231213 17 279 3.2 4.8 0.00 0.00 0.00 34 1007.1
20260507230710 16 294 3.2 4.8 0.00 0.00 0.00 34 1007.0
20260507230207 16 304 4.8 6.4 0.00 0.00 0.00 34 1007.1
20260507225706 17 263 3.2 3.2 0.00 0.00 0.00 35 1007.1
20260507225203 17 268 6.4 6.4 0.00 0.00 0.00 34 1007.1
20260507224659 17 301 1.6 1.6 0.00 0.00 0.00 34 1006.9
20260507224155 17 301 4.8 6.4 0.00 0.00 0.00 33 1006.9
20260507223652 17 277 1.6 3.2 0.00 0.00 0.00 33 1007.1
20260507223149 17 299 3.2 3.2 0.00 0.00 0.00 32 1006.9
20260507222646 17 303 6.4 9.7 0.00 0.00 0.00 31 1006.9
20260507222142 18 289 4.8 6.4 0.00 0.00 0.00 32 1007.0
20260507221638 18 253 3.2 4.8 0.00 0.00 0.00 32 1006.9
20260507221135 18 284 3.2 3.2 0.00 0.00 0.00 33 1006.9
20260507220632 18 304 6.4 9.7 0.00 0.00 0.00 33 1006.9
20260507220130 18 298 4.8 6.4 0.00 0.00 0.00 33 1007.1
20260507215626 18 253 6.4 6.4 0.00 0.00 0.00 33 1006.7
20260507215123 17 279 4.8 4.8 0.00 0.00 0.00 33 1007.1
20260507214620 17 278 3.2 3.2 0.00 0.00 0.00 34 1007.1
20260507214117 18 297 3.2 3.2 0.00 0.00 0.00 33 1006.9
20260507213613 18 187 4.8 6.4 0.00 0.00 0.00 34 1006.9
20260507213110 18 282 1.6 3.2 0.00 0.00 0.00 33 1006.8
20260507212606 17 283 3.2 3.2 0.00 0.00 0.00 34 1006.6
20260507212103 17 233 4.8 6.4 0.00 0.00 0.00 35 1006.9
20260507211600 18 270 3.2 4.8 0.00 0.00 0.00 34 1006.7
20260507211055 18 297 6.4 6.4 0.00 0.00 0.00 34 1006.4
20260507210553 18 271 3.2 4.8 0.00 0.00 0.00 33 1006.6
20260507210050 18 303 1.6 3.2 0.00 0.00 0.00 33 1006.4
20260507205546 18 269 6.4 6.4 0.00 0.00 0.00 34 1006.7
20260507205043 18 306 4.8 4.8 0.00 0.00 0.00 35 1006.7
20260507204539 19 270 3.2 3.2 0.00 0.23 0.23 33 1006.6
20260507204037 18 306 3.2 4.8 0.00 0.23 0.23 33 1006.7
20260507203535 18 286 1.6 1.6 0.00 0.23 0.23 33 1006.8
20260507203032 18 292 3.2 3.2 0.00 0.23 0.23 32 1006.8
20260507202527 18 242 4.8 6.4 0.00 0.23 0.23 33 1006.9
20260507202024 18 247 3.2 4.8 0.00 0.23 0.23 34 1006.9
20260507201520 18 289 1.6 3.2 0.00 0.23 0.23 33 1006.7
20260507201016 18 197 6.4 6.4 0.00 0.23 0.23 33 1006.7
20260507200511 18 294 6.4 11.3 0.00 0.23 0.23 33 1006.8
20260507200008 17 295 4.8 9.7 0.00 0.23 0.23 34 1006.8
20260507195505 17 250 3.2 4.8 0.00 0.23 0.23 35 1006.8
20260507195003 18 311 1.6 3.2 0.00 0.23 0.23 34 1006.8
20260507194459 18 277 6.4 6.4 0.00 0.23 0.23 33 1007.0
20260507193955 17 194 8.0 9.7 0.00 0.23 0.23 33 1007.0
20260507193452 17 294 4.8 4.8 0.00 0.23 0.23 34 1007.3
20260507192949 17 287 11.3 17.7 0.00 0.23 0.23 32 1007.0
20260507192444 17 294 8.0 11.3 0.00 0.23 0.23 33 1007.0
20260507191942 17 270 1.6 3.2 0.00 0.23 0.23 34 1007.0
20260507191438 17 296 4.8 6.4 0.00 0.23 0.23 35 1007.3
20260507190935 18 291 6.4 6.4 0.00 0.23 0.23 34 1007.2
20260507190432 17 246 4.8 6.4 0.00 0.23 0.23 36 1007.4
20260507185931 17 291 0.0 0.0 0.00 0.23 0.23 33 1007.7
20260507185428 17 299 9.7 12.9 0.00 0.23 0.23 34 1007.6
20260507184924 17 299 6.4 6.4 0.00 0.23 0.23 33 1007.4
20260507184422 18 314 6.4 6.4 0.00 0.23 0.23 33 1007.6
20260507183920 17 308 3.2 3.2 0.00 0.23 0.23 34 1007.7
20260507183416 17 303 1.6 1.6 0.00 0.23 0.23 34 1007.6
20260507182914 17 305 1.6 1.6 0.00 0.23 0.23 34 1007.7
20260507182409 17 300 3.2 4.8 0.00 0.23 0.23 34 1007.7
20260507181906 16 204 3.2 6.4 0.00 0.23 0.23 35 1007.8
20260507181402 16 278 6.4 6.4 0.00 0.23 0.23 34 1007.9
20260507180859 16 303 6.4 6.4 0.00 0.23 0.23 34 1007.8
20260507180355 16 305 9.7 11.3 0.00 0.23 0.23 34 1008.2
20260507175852 16 184 3.2 4.8 0.00 0.23 0.23 34 1008.3
20260507175349 16 278 4.8 4.8 0.00 0.23 0.23 33 1008.4
20260507174846 16 138 6.4 9.7 0.00 0.23 0.23 34 1008.5
20260507174343 17 313 4.8 4.8 0.00 0.23 0.23 33 1008.3
20260507173841 16 214 3.2 6.4 0.00 0.23 0.23 35 1008.2
20260507173338 17 280 4.8 6.4 0.00 0.23 0.23 34 1008.4
20260507172834 17 274 4.8 4.8 0.00 0.23 0.23 36 1008.4
20260507172331 16 301 4.8 4.8 0.00 0.23 0.23 35 1008.5
20260507171826 17 282 6.4 6.4 0.00 0.23 0.23 33 1008.6
20260507171324 16 306 1.6 3.2 0.00 0.23 0.23 35 1008.5
20260507170821 16 289 8.0 9.7 0.00 0.23 0.23 34 1008.7
20260507170317 16 290 8.0 11.3 0.00 0.23 0.23 34 1008.8
20260507165813 16 288 8.0 9.7 0.00 0.23 0.23 36 1008.9
20260507165309 16 313 1.6 3.2 0.00 0.23 0.23 36 1009.0
20260507164805 16 237 8.0 9.7 0.00 0.23 0.23 34 1008.9
20260507164303 16 324 1.6 3.2 0.00 0.23 0.23 35 1009.0
20260507163800 16 252 3.2 4.8 0.00 0.23 0.23 36 1008.9
20260507163258 16 323 3.2 3.2 0.00 0.23 0.23 33 1009.0
20260507162753 16 298 4.8 6.4 0.00 0.23 0.23 33 1009.1
20260507162249 16 279 3.2 3.2 0.00 0.23 0.23 35 1008.9
20260507161747 16 287 9.7 11.3 0.00 0.23 0.23 34 1009.3
20260507161243 16 250 4.8 4.8 0.00 0.23 0.23 36 1009.5
20260507160739 16 311 3.2 4.8 0.00 0.23 0.23 35 1009.7
20260507160236 16 308 3.2 3.2 0.00 0.23 0.23 34 1009.5
20260507155731 16 273 4.8 6.4 0.00 0.23 0.23 37 1009.6
20260507155227 15 308 4.8 6.4 0.00 0.23 0.23 37 1009.5
20260507154724 15 264 4.8 6.4 0.00 0.23 0.23 38 1009.6
20260507154222 15 216 6.4 6.4 0.00 0.23 0.23 37 1009.8
20260507153718 15 292 8.0 11.3 0.00 0.23 0.23 36 1009.8
20260507153215 15 280 3.2 4.8 0.00 0.23 0.23 36 1009.6
20260507152711 15 298 4.8 4.8 0.00 0.23 0.23 36 1009.7
20260507152207 15 353 3.2 6.4 0.00 0.23 0.23 37 1010.1
20260507151704 15 322 3.2 4.8 0.00 0.23 0.23 38 1010.0
20260507151200 15 239 4.8 4.8 0.00 0.23 0.23 40 1010.0
20260507150657 15 288 9.7 11.3 0.00 0.23 0.23 38 1010.1
20260507150154 15 289 6.4 9.7 0.00 0.23 0.23 39 1009.9
20260507145650 15 191 8.0 9.7 0.00 0.23 0.23 41 1009.9
20260507145147 15 287 3.2 3.2 0.00 0.23 0.23 42 1010.0
20260507144643 15 260 4.8 9.7 0.00 0.23 0.23 42 1010.0
20260507144142 15 297 4.8 4.8 0.00 0.23 0.23 46 1010.4
20260507143638 15 273 6.4 9.7 0.00 0.23 0.23 48 1010.4
20260507143135 15 286 4.8 11.3 0.00 0.23 0.23 50 1010.3
20260507142630 14 336 0.0 0.0 0.00 0.23 0.23 48 1010.1
20260507142128 14 300 4.8 4.8 0.00 0.23 0.23 48 1010.1
20260507141624 14 273 3.2 4.8 0.00 0.23 0.23 57 1010.0
20260507141121 14 216 4.8 4.8 0.00 0.23 0.23 57 1010.3
20260507140617 14 196 6.4 9.7 0.00 0.23 0.23 59 1010.3
20260507140115 13 241 6.4 9.7 0.00 0.23 0.23 62 1010.1
20260507135612 12 284 6.4 6.4 0.00 0.23 0.23 63 1010.0
20260507135109 12 312 3.2 3.2 0.00 0.23 0.23 67 1010.2
20260507134605 12 276 4.8 6.4 0.00 0.23 0.23 67 1010.0
20260507134101 12 292 1.6 3.2 0.00 0.23 0.23 67 1010.0
20260507133557 13 298 1.6 3.2 0.00 0.23 0.23 67 1010.4
20260507133055 12 307 0.0 1.6 0.00 0.23 0.23 71 1010.4
20260507132552 12 289 3.2 3.2 0.00 0.23 0.23 71 1010.3
20260507132048 12 301 3.2 4.8 0.00 0.23 0.23 71 1010.3
20260507131545 12 297 4.8 4.8 0.00 0.23 0.23 73 1010.1
20260507131043 11 206 6.4 6.4 0.00 0.23 0.23 74 1010.2
20260507130539 11 283 4.8 4.8 0.00 0.23 0.23 75 1010.2
20260507130038 11 285 3.2 3.2 0.00 0.23 0.23 77 1010.3
20260507125536 11 284 4.8 6.4 0.00 0.23 0.23 77 1010.5
20260507125033 12 305 0.0 1.6 0.00 0.23 0.23 77 1010.3
20260507124529 11 241 6.4 11.3 0.00 0.23 0.23 77 1010.3
20260507124027 12 314 3.2 3.2 0.00 0.23 0.23 77 1010.3
20260507123525 11 193 3.2 4.8 0.00 0.23 0.23 78 1010.4
20260507123021 10 263 3.2 3.2 0.00 0.23 0.23 80 1010.3
20260507122516 10 248 6.4 6.4 0.00 0.23 0.23 80 1010.3
20260507122013 10 289 3.2 4.8 0.00 0.23 0.23 80 1010.3
20260507121508 10 292 4.8 6.4 0.00 0.23 0.23 80 1010.6
20260507121004 10 240 4.8 6.4 0.00 0.23 0.23 80 1010.3
20260507120501 10 244 3.2 3.2 0.00 0.23 0.23 80 1010.5
20260507115958 10 311 4.8 6.4 0.00 0.23 0.23 80 1010.3
20260507115454 11 253 6.4 9.7 0.00 0.23 0.23 80 1010.3
20260507114950 10 262 4.8 4.8 0.00 0.23 0.23 80 1010.0
20260507114446 10 301 1.6 1.6 0.00 0.23 0.23 81 1009.9
20260507113944 10 298 3.2 3.2 0.00 0.23 0.23 81 1010.0
20260507113440 10 248 6.4 6.4 0.00 0.23 0.23 81 1009.9
20260507112938 10 293 1.6 3.2 0.00 0.23 0.23 82 1009.8
20260507112435 10 272 4.8 4.8 0.00 0.23 0.23 81 1009.7
20260507111932 10 277 3.2 4.8 0.00 0.23 0.23 82 1009.8
20260507111429 10 287 3.2 3.2 0.00 0.23 0.23 82 1009.6
20260507110925 10 244 3.2 3.2 0.00 0.23 0.23 83 1009.4
20260507110422 10 260 3.2 3.2 0.00 0.23 0.23 82 1009.6
20260507105919 10 306 3.2 3.2 0.00 0.23 0.23 82 1009.5
20260507105415 10 293 3.2 3.2 0.00 0.23 0.23 83 1009.4
20260507104912 10 305 3.2 3.2 0.00 0.23 0.23 82 1009.4
20260507104409 10 317 3.2 4.8 0.00 0.23 0.23 82 1009.2
20260507103904 10 301 1.6 3.2 0.00 0.23 0.23 83 1009.4
20260507103402 10 306 1.6 1.6 0.00 0.23 0.23 84 1009.3
20260507102857 10 303 3.2 4.8 0.00 0.23 0.23 84 1009.3
20260507102354 10 285 3.2 4.8 0.00 0.23 0.23 86 1009.2
20260507101850 10 279 6.4 6.4 0.00 0.23 0.23 86 1009.2
20260507101345 10 301 3.2 4.8 0.00 0.23 0.23 86 1009.1
20260507100842 10 202 3.2 3.2 0.00 0.23 0.23 88 1008.9
20260507100340 10 294 3.2 3.2 0.00 0.23 0.23 87 1008.7
20260507095838 10 282 1.6 3.2 0.00 0.23 0.23 89 1008.8
20260507095334 10 218 4.8 6.4 0.00 0.23 0.23 89 1008.8
20260507094832 10 274 0.0 1.6 0.00 0.23 0.23 89 1008.7
20260507094328 10 271 3.2 3.2 0.00 0.23 0.23 89 1008.7
20260507093825 10 293 3.2 3.2 0.00 0.23 0.23 89 1008.8
20260507093324 10 260 4.8 6.4 0.00 0.23 0.23 88 1008.6
20260507092821 10 271 3.2 3.2 0.13 0.23 0.23 89 1008.6
20260507092318 10 299 4.8 4.8 0.13 0.23 0.23 91 1008.7
20260507091814 10 295 3.2 3.2 0.00 0.20 0.20 91 1008.5
20260507091310 10 293 1.6 3.2 0.00 0.20 0.20 91 1008.6
20260507090805 10 276 1.6 3.2 0.00 0.20 0.20 91 1008.7
20260507090302 10 227 3.2 6.4 0.00 0.20 0.20 91 1008.9
20260507085759 10 281 3.2 3.2 0.00 0.20 0.20 90 1008.6
20260507085256 10 292 4.8 6.4 0.00 0.20 0.20 90 1008.6
20260507084754 10 298 4.8 4.8 0.00 0.20 0.20 90 1008.3
20260507084249 10 278 3.2 3.2 0.00 0.20 0.20 90 1008.9
20260507083747 10 243 6.4 6.4 0.00 0.20 0.20 88 1008.7
20260507083244 10 269 6.4 6.4 0.00 0.20 0.20 88 1008.7
20260507082740 10 237 3.2 4.8 0.00 0.20 0.20 89 1008.6
20260507082236 10 299 8.0 9.7 0.00 0.20 0.20 87 1008.4
20260507081733 10 300 8.0 11.3 0.00 0.20 0.20 88 1008.3
20260507081229 10 274 6.4 6.4 0.00 0.20 0.20 88 1008.6
20260507080726 10 302 4.8 4.8 0.00 0.20 0.20 89 1008.4
20260507080221 10 267 4.8 4.8 0.00 0.20 0.20 90 1008.5
20260507075717 10 274 4.8 6.4 0.00 0.20 0.20 91 1008.5
20260507075214 10 302 3.2 3.2 0.00 0.20 0.20 91 1009.0
20260507074710 10 260 3.2 3.2 0.00 0.20 0.20 91 1008.6
20260507074209 10 291 1.6 3.2 0.00 0.20 0.20 91 1008.9
20260507073704 10 255 4.8 6.4 0.00 0.20 0.20 91 1008.9
20260507073201 10 295 1.6 1.6 0.00 0.20 0.20 92 1008.8
20260507072659 10 221 6.4 6.4 0.00 0.20 0.20 91 1008.8
20260507072156 10 309 6.4 9.7 0.00 0.20 0.20 90 1009.0
20260507071654 10 245 3.2 4.8 0.00 0.20 0.20 92 1008.5
20260507071149 10 295 1.6 3.2 0.00 0.20 0.20 91 1008.8
20260507070647 10 274 6.4 9.7 0.00 0.20 0.20 92 1008.5
20260507070143 10 250 8.0 9.7 0.18 0.20 0.20 92 1008.6
20260507065640 11 269 6.4 9.7 0.18 0.20 0.20 93 1008.8
20260507065137 11 229 3.2 4.8 0.00 0.18 0.18 94 1008.6
20260507064634 11 284 4.8 4.8 0.00 0.18 0.18 94 1008.1
20260507064133 11 298 3.2 4.8 0.13 0.18 0.18 94 1008.2
20260507063630 11 257 6.4 6.4 0.13 0.18 0.18 93 1008.0
20260507063127 11 292 6.4 6.4 0.18 0.15 0.15 93 1008.2
20260507062624 11 249 6.4 6.4 0.18 0.15 0.15 92 1008.8
20260507062121 11 246 6.4 6.4 0.00 0.13 0.13 90 1008.6
20260507061619 11 228 6.4 6.4 0.18 0.13 0.13 91 1008.6
20260507061117 11 203 4.8 4.8 0.30 0.13 0.13 91 1008.0
20260507060615 11 305 1.6 3.2 0.13 0.10 0.10 90 1007.8
20260507060111 12 291 3.2 3.2 0.18 0.08 0.08 89 1007.6
20260507055606 12 297 3.2 3.2 0.18 0.08 0.08 86 1007.5
20260507055103 12 277 4.8 6.4 0.00 0.05 0.05 82 1008.7
20260507054558 13 293 6.4 6.4 0.00 0.05 0.05 79 1008.1
20260507054056 13 299 3.2 4.8 0.00 0.05 0.05 78 1008.0
20260507053554 13 312 6.4 6.4 0.00 0.05 0.05 76 1008.0
20260507053052 13 291 3.2 4.8 0.00 0.05 0.05 77 1007.8
20260507052550 13 298 4.8 4.8 0.00 0.05 0.05 76 1007.4
20260507052046 13 289 3.2 3.2 0.00 0.05 0.05 78 1007.5
20260507051544 13 282 4.8 9.7 0.00 0.05 0.05 77 1007.4
20260507051040 13 303 6.4 6.4 0.00 0.05 0.05 78 1007.6
20260507050537 13 262 4.8 4.8 0.00 0.05 0.05 79 1007.9
20260507050033 13 246 1.6 3.2 0.00 0.05 0.05 79 1007.9
20260507045530 13 250 3.2 4.8 0.00 0.05 0.05 79 1008.1
20260507045027 13 276 3.2 3.2 0.00 0.05 0.05 79 1008.1
20260507044524 13 283 1.6 3.2 0.00 0.05 0.05 78 1007.9
20260507044021 13 259 3.2 4.8 0.00 0.05 0.05 79 1008.0
20260507043517 13 264 3.2 3.2 0.00 0.05 0.05 79 1007.8
20260507043014 13 279 1.6 3.2 0.00 0.05 0.05 80 1008.0
20260507042510 13 284 3.2 3.2 0.00 0.05 0.05 79 1008.1
20260507042006 13 250 4.8 4.8 0.00 0.05 0.05 79 1008.1
20260507041503 13 250 3.2 3.2 0.00 0.05 0.05 79 1008.4
20260507041000 13 246 3.2 3.2 0.00 0.05 0.05 80 1008.1
20260507040455 13 264 4.8 4.8 0.00 0.05 0.05 80 1008.2
20260507035951 13 262 3.2 4.8 0.00 0.05 0.05 80 1008.1
20260507035448 13 299 1.6 1.6 0.00 0.05 0.05 81 1008.0
20260507034945 14 309 4.8 4.8 0.00 0.05 0.05 80 1008.0
20260507034442 14 236 6.4 6.4 0.00 0.05 0.05 79 1008.1
20260507033940 14 262 6.4 6.4 0.00 0.05 0.05 79 1008.0
20260507033438 14 263 3.2 4.8 0.00 0.05 0.05 79 1008.0
20260507032934 14 290 6.4 9.7 0.00 0.05 0.05 78 1007.9
20260507032431 14 267 11.3 14.5 0.00 0.05 0.05 79 1008.1
20260507031927 15 291 4.8 6.4 0.00 0.05 0.05 81 1008.0
20260507031426 15 297 6.4 6.4 0.00 0.05 0.05 84 1007.8
20260507030921 15 299 3.2 3.2 0.00 0.05 0.05 85 1007.7
20260507030418 15 299 3.2 4.8 0.00 0.05 0.05 87 1007.7
20260507025915 15 286 3.2 4.8 0.00 0.05 0.05 91 1007.7
20260507025412 15 290 1.6 1.6 0.00 0.05 0.05 91 1007.8
20260507024910 15 299 3.2 3.2 0.00 0.05 0.05 91 1007.9
20260507024407 16 282 6.4 9.7 0.00 0.05 0.05 91 1007.9
20260507023903 16 301 4.8 6.4 0.00 0.05 0.05 92 1007.9
20260507023400 16 273 6.4 6.4 0.00 0.05 0.05 92 1007.8
20260507022857 16 271 4.8 4.8 0.00 0.05 0.05 92 1008.0
20260507022354 16 224 3.2 3.2 0.00 0.05 0.05 92 1007.7
20260507021850 16 295 1.6 3.2 0.00 0.05 0.05 93 1007.8
20260507021345 16 257 4.8 4.8 0.00 0.05 0.05 93 1007.7
20260507020843 17 286 0.0 1.6 0.13 0.05 0.05 94 1007.7
20260507020339 17 259 0.0 1.6 0.13 0.05 0.05 93 1007.8
20260507015836 17 266 3.2 3.2 0.18 0.03 0.03 92 1007.5
20260507015335 17 266 6.4 6.4 0.18 0.03 0.03 89 1007.5
20260507014831 18 115 3.2 4.8 0.00 0.00 0.00 83 1007.4
20260507014328 18 226 9.7 11.3 0.00 0.00 0.00 83 1007.2